sat.trackr.live / text

‹ back to catalog

SUPERVIEW NEO-1 02

NORAD 52322 · 2022-043C

PAYLOAD ACTIVE UNKNOWN

§ Identity

Operator
Country
PRC
Launch date
2022-04-29
Launch site
JSC
Launch vehicle
Mass (kg)
RCS (m²)

External: N2YO · Heavens-Above · Gunter

§ Orbital elements

Epoch: 2026-09-20T23:06:34.743168Z

Period
94.91 min
Inclination
97.3320°
Eccentricity
0.0002288
Mean motion
15.17164047 rev/d
Perigee alt
512.8 km
Apogee alt
516.0 km
Semi-major
6,892.6 km
B*
1.3585e-4
RAAN
333.6808°
Arg perigee
42.3114°
Mean anomaly
317.8296°
Rev number
24,409

§ Raw data

SUPERVIEW NEO-1 021 52322U 22043C   26263.96290212  .00002632  00000+0  13585-3 0  99922 52322  97.3320 333.6808 0002288  42.3114 317.8296 15.17164047244097

JSON: /api/v1/satellites/52322 · /tle

For live sub-satellite position, see the globe view (requires WebGL).

§ Visibility from observer

Set your observer location to see the next 7 days of passes ≥ 10°. The values pass through the URL so the page stays shareable.

No JS? Fill the form by hand. The geolocation button needs JavaScript.

§ Radio — SatNOGS DB

ModeDescriptionDownlinkUplink
BPSK S-band telemetry 2.265 GHz

1 transmitter · refreshed weekly from db.satnogs.org